CW8361 Weather Reports


Display with metric or nautical units.
time (UTC)temp
F
wind
direction
speed
MPH
gust
MPH
rain 1hr
in
rain 24hr
in
rain mn
in
humidity
%
barometer
mb
20191208220015 70 203 5.0 19.0 0.00 0.00 0.00 55 1005.3
20191208213015 71 203 5.0 14.0 0.00 0.00 0.00 52 1006.0
20191208210015 71 203 5.0 16.0 0.00 0.00 0.00 53 1006.7
20191208203015 71 203 4.0 16.0 0.00 0.00 0.00 52 1006.5
20191208200015 70 203 5.0 23.0 0.00 0.00 0.00 53 1006.5
20191208193015 70 203 6.0 16.0 0.00 0.00 0.00 55 1007.2
20191208190016 69 203 5.0 20.0 0.00 0.00 0.00 56 1007.6
20191208183015 69 203 4.0 15.0 0.00 0.00 0.00 56 1008.9
20191208180015 67 203 6.0 18.0 0.00 0.00 0.00 61 1009.6
20191208173015 65 203 6.0 22.0 0.00 0.00 0.00 64 1010.3
20191208170015 63 203 6.0 21.0 0.00 0.00 0.00 68 1010.9
20191208163015 61 225 7.0 17.0 0.00 0.00 0.00 71 1011.4
20191208160015 59 225 6.0 19.0 0.00 0.00 0.00 74 1012.1
20191208153015 57 203 5.0 14.0 0.00 0.00 0.00 78 1012.3
20191208150015 54 180 2.0 9.0 0.00 0.00 0.00 84 1012.4
20191208143015 53 203 3.0 9.0 0.00 0.00 0.00 86 1012.4
20191208140015 52 203 4.0 10.0 0.00 0.00 0.00 87 1012.1
20191208133015 51 180 2.0 8.0 0.00 0.00 0.00 87 1012.3
20191208130018 51 180 2.0 8.0 0.00 0.00 0.00 86 1012.7
20191208123017 52 203 1.0 8.0 0.00 0.00 0.00 85 1012.7
20191208120017 52 203 2.0 7.0 0.00 0.00 0.00 84 1013.3
20191208113017 53 203 3.0 12.0 0.00 0.00 0.00 84 1013.5
20191208110017 52 203 2.0 8.0 0.00 0.00 0.00 84 1013.2
20191208103017 52 203 1.0 7.0 0.00 0.00 0.00 85 1013.5
20191208100017 51 203 1.0 7.0 0.00 0.00 0.00 85 1013.6
20191208093018 51 203 1.0 6.0 0.00 0.00 0.00 85 1014.2
20191208090017 51 0.0 6.0 0.00 0.00 0.00 86 1014.6
20191208083017 50 0.0 0.0 0.00 0.00 0.00 87 1015.2
20191208080017 50 0.0 0.0 0.00 0.00 0.00 85 1015.3
20191208073017 50 0.0 0.0 0.00 0.00 0.00 84 1015.4
20191208070017 50 0.0 0.0 0.00 0.00 0.00 83 1015.8
20191208063017 50 0.0 0.0 0.00 0.00 0.00 84 1015.9
20191208060016 50 0.0 0.0 0.00 0.00 0.00 82 1016.2
20191208053016 50 0.0 0.0 0.00 0.00 0.00 81 1016.5
20191208050016 50 0.0 0.0 0.00 0.00 0.00 81 1016.4
20191208043016 49 0.0 0.0 0.00 0.00 0.00 83 1016.8
20191208040016 48 0.0 0.0 0.00 0.00 0.00 83 1017.0
20191208033016 48 0.0 0.0 0.00 0.00 0.00 78 1017.0
20191208030016 49 0.0 0.0 0.00 0.00 0.00 76 1017.0
20191208023015 49 0.0 0.0 0.00 0.00 0.00 72 1017.5
20191208020016 50 0.0 0.0 0.00 0.00 0.00 70 1017.8
20191208013016 52 0.0 0.0 0.00 0.00 0.00 67 1018.1
20191208010016 53 0.0 0.0 0.00 0.00 0.00 65 1018.1
20191208003016 56 0.0 0.0 0.00 0.00 0.00 60 1018.3
20191208000016 58 0.0 0.0 0.00 0.00 0.00 56 1018.3
20191207233016 61 0.0 0.0 0.00 0.00 0.00 52 1018.4
20191207230016 62 0.0 0.0 0.00 0.00 0.00 48 1018.7
20191207223016 63 0.0 0.0 0.00 0.00 0.00 47 1019.0